Regional Weather Roundup
Issued by NWS Charleston, SC

Current Version | Previous Version | Graphics & Text | Print | Product List | Glossary On
Versions: 1 2 3 4 5 6 7 8 9 10 11 12 13 14 15 16 17 18 19 20 21 22 23 24 25 26 27 28 29 30 31 32 33 34 35 36 37 38 39 40 41 42 43 44 45 46 47 48 49 50
000 ASUS42 KCHS 170227 RWRCHS REGIONAL WEATHER ROUNDUP NATIONAL WEATHER SERVICE CHARLESTON SC 900 PM EST MON JAN 16 2017 NOTE: "FAIR" INDICATES FEW OR NO CLOUDS BELOW 12,000 FEET WITH NO SIGNIFICANT WEATHER AND/OR OBSTRUCTIONS TO VISIBILITY. NOT ALL STATIONS ARE QUALITY CONTROLLED. USE DATA WITH CAUTION... ESPECIALLY DEWPOINT OBSERVATIONS. SCZ027-030-031-034>040-042>050-170300- ...SOUTHEAST SOUTH CAROLINA... CITY SKY/WX TMP DP RH WIND PRES REMARKS N CHARLESTON CLOUDY 59 55 87 E6 30.32S WATERFRONT PRK N/A 57 55 93 NE7 30.32R MOUNT PLEASANT FAIR 55 54 94 NE3 30.32F JOHNS ISLAND FAIR 55 54 94 NE8 30.32S PINOPOLIS N/A 57 55 94 E6 30.23F MONCKS CORNER CLOUDY 55 54 94 E3 30.32S SUMMERVILLE CLOUDY N/A N/A N/A CALM 30.33S BEAUFORT MCAS MOCLDY 60 58 92 E3 30.31R BEAUFORT ARPT MOCLDY 59 55 88 E6 30.30S HILTON HEAD IS PTCLDY 55 55 100 VRB7 30.32R WALTERBORO CLOUDY 61 N/A N/A CALM 30.33R ALLENDALE CLOUDY 59 59 100 CALM 30.30S FOG ...SOUTHERN MIDLANDS AND PEE DEE... CITY SKY/WX TMP DP RH WIND PRES REMARKS GEORGETOWN CLOUDY 54 50 87 NE6 30.33F KINGSTREE CLOUDY 52 50 93 CALM 30.33F ORANGEBURG FOG 55 55 100 E5 30.32S VSB 1/2 BARNWELL CLOUDY 59 57 94 E9 30.32R AIKEN CLOUDY 54 52 94 E7 30.34S MANNING CLOUDY 54 52 94 CALM 30.33S FOG COLUMBIA CLOUDY 54 52 93 E5 30.33R FOG SUMTER FOG 52 52 100 NE5 30.31S VSB 3/4 FLORENCE CLOUDY 54 52 93 E3 30.35S MYRTLE BEACH MOCLDY 57 48 72 N7 30.36S N MYRTLE BEACH CLOUDY 54 50 86 NE3 30.34S $$ GAZ063-065-086>088-099>101-113>116-118-119-134>141-150-170300- ...SOUTHEAST GEORGIA... CITY SKY/WX TMP DP RH WIND PRES REMARKS SAVANNAH ARPT FOG 60 57 89 E7 30.31R VSB 1/2 HUNTER AAF PTCLDY 57 57 100 E3 30.29R FORT STEWART FOG 60 58 96 CALM 30.28R VSB 3/4 STATESBORO MOCLDY 64 61 92 SE7 30.30S SYLVANIA CLOUDY N/A N/A N/A SE3 30.31S CLAXTON FAIR N/A N/A N/A E6 30.30R ...CSRA...CENTRAL AND FAR SOUTHEAST GEORGIA... CITY SKY/WX TMP DP RH WIND PRES REMARKS THOMSON CLOUDY 59 58 97 E3 30.33S AUGUSTA-BUSH CLOUDY 59 55 87 E6 30.30R AUGUSTA-DANIEL CLOUDY 59 54 83 E8 30.31R SWAINSBORO FAIR 64 59 82 SE9 30.29R VIDALIA PTCLDY 64 61 88 SE7 30.29R EASTMAN FAIR 56 55 95 CALM 30.28S HAZLEHURST FAIR 66 63 89 SE5 30.27S ALMA CLOUDY 65 59 81 E7 30.27S WAYCROSS MOCLDY 67 66 97 SE6 30.28S JESUP CLOUDY 61 57 88 E3 30.30R BAXLEY CLOUDY 64 63 94 SE6 30.28S BRUNSWICK FOG 59 59 100 NE6 30.31R VSB 1/4 SAINT SIMONS FOG 60 60 100 NE6 30.29R VSB 3/4 $$ SCZ027-028-034-036>038-045-046-048>050-GAZ119-141-170300- ...LAKE AND SUPPLEMENTAL COASTAL OBSERVATIONS... STATION/POSITION TIME TEMP WIND PRES WAVE SWELL AIR SEA DIR/SP/G HT/PER HT/PER/DIR (UTC) (F) (DEG/KT/KT) (MB) (FT/S) (FT/S/D) WINYAH BAY 0145 55 40/ 3 1027.0S LAKE MURRAY 0220 53 100/ 8/ 9 1026.4 ACE BASIN NERRS 0145 59 60/ 3 1026.0S FORT PULASKI 0200 56 56 70/ 6/ 8 1026.7 SAPELO ISLAND 0200 59 50/ 5 1026.0 $$ ANZ835-935-AMZ111-154-330-350-352-354-370-450-454-472-170300- ...C-MAN AND BUOY OBSERVATIONS... STATION/POSITION TIME TEMP WIND PRES WAVE SWELL AIR SEA DIR/SP/G HT/PER HT/PER/DIR (UTC) (F) (DEG/KT/KT) (MB) (FT/S) (FT/S/D) BUOY 41004 0150 67 70 40/ 14/ 16 1025.5F 4/ 6 3/120/10 BUOY 41008 0150 61 59 70/ 8/ 8 1025.2S 3/10 3/130/10 FOLLY BEACH CMAN 0200 55 50/ 12/ 14 1027.0F CAPERS NEARSHORE 0208 54 54 50/ 12/ 16 1026.4R FRIPP NEARSHORE 0208 56 56 70/ 12/ 14 1026.1S STATION/POSITION TIME TEMP WIND PRES WAVE SWELL AIR SEA DIR/SP/G HT/PER HT/PER/DIR (UTC) (F) (DEG/KT/KT) (MB) (FT/S) (FT/S/D) 5E ST. MARYS GA 0200 62 N/A 2/10 2/100/11 FRYING PAN BUOY 0210 65 70 50/ 12/ 16 1026.5 BUOY 41025 0150 55 73 10/ 14/ 16 1027.1F 3/ 8 2/110/ 8 CAPE LOOKOUT NC 0200 48 360/ 8/ 10 1027.4F BUOY 41002 0150 70 71 130/ 8/ 10 1027.3R 4/ 8 3/ 30/ 8 BUOY 41010 NOT AVBL ST AUGUSTINE FL 0200 67 66 110/ 10/ 10 1025.4F $$

USA.gov is the U.S. government's official web portal to all federal, state and local government web resources and services.